www.pogodaiklimat.ru
ПОГОДА в Мелроуз Рейндж
Время
и дата
17:55 29.01
18:55 29.01
19:55 29.01
20:55 29.01
21:55 29.01
22:55 29.01
23:25 29.01
23:55 29.01
00:05 30.01
00:55 30.01
01:45 30.01
01:55 30.01
02:55 30.01
03:45 30.01
03:55 30.01
04:40 30.01
04:55 30.01
05:55 30.01
06:55 30.01
07:55 30.01
08:00 30.01
08:05 30.01
08:55 30.01
09:55 30.01
10:55 30.01
11:55 30.01
12:50 30.01
12:55 30.01
13:55 30.01
14:05 30.01
14:20 30.01
14:55 30.01
15:10 30.01
15:55 30.01
16:55 30.01
17:55 30.01
18:55 30.01
19:55 30.01
20:10 30.01
20:20 30.01
20:30 30.01
20:49 30.01
20:55 30.01
21:05 30.01
21:10 30.01
21:20 30.01
21:21 30.01
21:26 30.01
Ветер
(напр.,м/с)
Видим. Явления Облачность Т
(С)
Тd
(С)
f
(%)
Тe
(С)
Тes
(С)
Комфортность P
(гПа)
Po
(гПа)
Тmin
(С)
Tmax
(С)
R
(мм)
R24
(мм)
S
(см)
В 5 16 км ясно -1.7 -5.2 77 -8 -8 1014.0 862.8
В 4 16 км ясно -3.3 -5.5 85 -9 -9 1015.4 863.6
В 5 16 км ясно -4.2 -5.6 90 -11 -11 1016.1 864.2
В 5 16 км ясно -4.8 -5.8 93 -12 -12 1017.1 865.1
В 7 11 км ясно -5.3 -6.1 94 -14 -14 1017.8 865.6
В 5 13 км ясно -5.9 -6.6 95 -13 -13 1018.5 865.9 -5.9 +0.4
В 5 16 км 8/8 -6.0 -7.0 93 -13 -13 1018.2 865.9
В 5 16 км 10/10 240 м -5.7 -6.2 96 -13 -13 1018.2 865.9
В 5 16 км 10/10 180 м -6.0 -6.0 100 -14 -14 1018.5 866.2
В 6 16 км 10/10 180 м -6.0 -6.7 95 -14 -14 1018.1 866.2
В 6 16 км 10/10 210 м -6.0 -8.0 86 -14 -14 1018.5 866.5
В 6 16 км 10/10 210 м -6.7 -7.8 92 -15 -15 1018.5 866.5
В 4 16 км 10/10 210 м -7.4 -8.4 93 -14 -14 1018.5 866.8
В 5 14 км 10/10 180 м -7.0 -8.0 93 -15 -15 1018.8 866.8
В 5 13 км 10/10 180 м -7.4 -8.2 94 -15 -15 1018.8 867.1
В 6 6 км дымка 10/10 120 м -7.0 -8.0 93 -15 -15 1019.2 867.1
В 6 6 км дымка 10/10 120 м -7.6 -8.1 96 -16 -16 1019.6 867.1 -7.6 -5.6
В 5 8 км дымка 10/10 90 м -8.0 -8.7 95 -16 -16 1020.3 867.4
В 3 6 км дымка 10/10 90 м -8.1 -8.8 95 -14 -14 1021.3 867.9
ЮВ 4 5 км дымка 10/10 90 м -8.2 -8.9 95 -15 -15 1021.7 868.2
В 4 4 км дымка 10/10 90 м -8.0 -9.0 92 -15 -15 1021.7 868.2
В 4 5 км дымка 10/10 90 м -8.0 -9.0 92 -15 -15 1021.7 868.2
В 4 6 км дымка 10/10 90 м -8.0 -8.7 95 -15 -15 1022.4 868.8
В 4 8 км дымка 10/10 90 м -7.2 -7.9 95 -14 -14 1022.4 868.8
В 3 6 км дымка 10/10 90 м -7.0 -7.5 96 -13 -13 1021.7 868.2 -8.3 -6.9
ЮВ 3 11 км 10/10 120 м -5.8 -6.2 97 -12 -12 1020.6 867.4
Ю 3 16 км 10/10 150 м -4.0 -5.0 93 -9 -9 1018.9 866.2
Ю 3 16 км 10/10 150 м -4.4 -4.7 98 -10 -10 1018.5 865.9
ЮЗ 3 16 км 10/10 180 м -3.6 -3.9 98 -9 -9 1017.5 865.1
Ю 3 16 км 10/10 210 м -3.0 -4.0 93 -8 -8 1017.5 865.1
Ю 3 16 км 10/10 180 м -3.0 -4.0 93 -8 -8 1017.1 864.8
В 2 16 км 10/10 180 м -3.7 -4.0 98 -8 -8 1016.8 864.2
ЮВ 2 16 км 10/10 240 м -4.0 -4.0 100 -8 -8 1016.8 864.2
Ю 3 16 км 10/10 240 м -2.3 -2.6 98 -8 -8 1016.8 864.5
Ю 3 16 км 10/10 240 м -1.9 -3.0 92 -7 -7 1017.1 864.8 -6.9 -1.8
Ю 3 16 км 10/10 210 м -2.1 -2.9 94 -7 -7 1017.8 865.4
ЮВ 3 16 км 10/10 210 м -2.1 -2.9 94 -7 -7 1018.2 865.6
ЮВ 3 16 км 10/10 210 м -1.9 -2.7 94 -7 -7 1018.5 865.9
В 4 8 км дымка 10/10 -3.0 -3.0 100 -9 -9 1018.9 865.9
ЮВ 5 4 км дымка 10/10 90 м -3.0 -4.0 93 -10 -10 1019.2 866.2
ЮВ 5 3 км дымка 10/10 60 м -3.0 -4.0 93 -10 -10 1019.2 866.2
ЮВ 5 2 км слабый снег, дымка 10/10 60 m
[Ns]
-4.0 -4.0 100 -11 -11 1019.6 866.5
ЮВ 5 2 км слабый снег, дымка 10/10 60 m
[Ns]
-3.8 -4.1 98 -11 -11 1019.2 866.2
ЮВ 6 2 км слабый снег, дымка 10/10 60 m
[Ns]
-4.0 -4.0 100 -12 -12 1019.6 866.5
ЮВ 4 1 км слабый снег, дымка 10/10 60 m
[Ns]
-4.0 -4.0 100 -11 -11 1019.6 866.5
В 5 2 км слабый снег, дымка 10/10 60 m
[Ns]
-4.0 -4.0 100 -11 -11 1019.6 866.5
В 5 2 км слабая замерзающая морось, дымка 10/10 60 m
[St]
-4.0 -4.0 100 -11 -11 1019.6 866.5
ЮВ 5 2 км слабая замерзающая морось, дымка 10/10 60 m
[St]
-4.0 -4.0 100 -11 -11 1019.6 866.5
Местоположение метеостанции Melrose Air Force Range: широта 34.2950 долгота -103.7860 высота над уровнем моря 1339 м.
В архиве по умолчанию представлена погода в Мелроуз Рейндж за последние 1-2 суток. Обновление информации о фактической погоде в базе происходит ежечасно! Архивные данные за месяц целиком и за предыдущие месяцы Вы можете получить, выбрав интересующий диапазон дат из раскрывающегося списка и нажав кнопку "Ввод!".
Внимание! Архив погоды МЕТАР в базе сайта по станциям, не включенным в климатический монитор, хранится не более 60 дней. Нет смысла пытаться выбрать более раннюю дату.
*Определитесь, кто Вы:
Внимание! Время в таблицах - местное (без учета летнего времени). Для получения всемирного времени необходимо вычесть поправку, которая равна -7 ч.
Смотрите также архив погоды в соседних городах и на ближайших метеорологических станциях:
Партнеры нашего сайта:      
Пояснения к столбцам:
  • Ветер - указаны скорость ветра в м/с - средняя за 10 мин, порывы в срок и между сроками (в фигурных скобках) и направление, откуда дует ветер: С - северный,
  • СВ - северо-восточный, В - восточный, ЮВ - юго-восточный, Ю - южный, ЮЗ - юго-западный, З - западный, СЗ - северо-западный.
  • Видимость - горизонтальная дальность видимости в метрах или километрах. При видимости от 1 до 10 км при отсутствии осадков обычно наблюдается дымка, при ухудшении видимости до 1 км и менее - туман. В сухую погоду видимость может ухудшаться дымом, пылью или мглою.
  • Явления - указаны атмосферные явления, наблюдавшиеся в срок или в последний час перед сроком; фигурными скобками обозначены явления, наблюдавшиеся между сроками (за 1-3 часа до срока); квадратными скобками обозначены град или гололедные отложения с указанием их диаметра в мм.
  • Облачность - указаны через наклонную черту общая и нижняя облачность в баллах и высота нижней границы облаков в метрах; квадратными скобками обозначены формы облаков: Ci - перистые, Cs - перисто-слоистые, Cc - перисто-кучевые, Ac - высококучевые, As - высокослоистые, Sc - слоисто-кучевые, Ns - слоисто-дождевые, Cu - кучевые, Cb - кучево-дождевые. Подробнее классификацию облаков см. в Атласе облаков (PDF).
  • T - Температура воздуха - температура, измеренная на высоте 2 м над землей.
  • Td - Температура точки росы - температура, при понижении до которой содержащийся в воздухе водяной пар достигнет насыщения.
  • f - Относительная влажность воздуха - влажноcть воздуха, измеренная на высоте 2 м над землей.
  • Te - Эффективная температура - температура, которую ощущает одетый по сезону человек в тени. Характеристика душности погоды. При расчете учитывается влияние влажности воздуха и скорости ветра на теплоощущения человека.
  • Tes - Эффективная температура на солнце - температура, которую ощущает человек, с поправкой на солнечный нагрев. Характеристика знойности погоды. Зависит от высоты солнца над горизонтом, облачности и скорости ветра. Ночью, в пасмурную погоду, а также при ветре 12 м/с и более поправка равна нулю.
  • P - Атмосферное давление - приведенное к уровню моря атмосферное давление.
  • Po - Атмосферное давление - измеренное на уровне метеостанции атмосферное давление.
  • Tmin - Минимальная температура - минимум температуры воздуха на высоте 2 м над землей.
  • Tmax - Максимальная температура - максимум температуры воздуха на высоте 2 м над землей.
  • R - Количество осадков - Количество выпавших осадков за период времени, мм. При наведении курсора мыши на число - период времени, за который выпало указанное количество осадков.
  • R24 - Количество осадков - Количество выпавших осадков за 24 часа, мм.
  • S - Снежный покров - Высота снежного покрова, см. При наведении курсора мыши на число - состояние снежного покрова и степень покрытия местности в баллах.